Regional Weather Roundup
Issued by NWS Upton, NY

Current Version | Previous Version | Graphics & Text | Print | Product List | Glossary Off
Versions: 1 2 3 4 5 6 7 8 9 10 11 12 13 14 15 16 17 18 19 20 21 22 23 24 25 26 27 28 29 30 31 32 33 34 35 36 37 38 39 40 41 42 43 44 45 46 47 48 49

000
ASUS41 KOKX 020004
RWROKX

REGIONAL WEATHER ROUNDUP
NATIONAL WEATHER SERVICE NEW YORK NY
800 PM EDT SUN MAY 01 2016

NOTE: "FAIR" INDICATES FEW OR NO CLOUDS BELOW 12,000 FEET WITH NO
SIGNIFICANT WEATHER AND/OR OBSTRUCTIONS TO VISIBILITY.

NYZ071-072-176-178-NJZ106-104-020100-
NEW YORK CITY METRO AREA


CITY           SKY/WX    TMP DP  RH WIND       PRES   REMARKS
CENTRAL PARK   CLOUDY    47  44  90 NE9       30.13R FOG
LAGUARDIA APRT CLOUDY    48  44  86 NE13      30.10S FOG
KENNEDY INTL   DRIZZLE   47  45  93 E8        30.11S FOG
NEWARK/LIBERTY DRIZZLE   44  44 100 E8        30.10S FOG
BRNX BOT. GARD   N/A     45  43  93 E8        30.11R
TETERBORO      DRIZZLE   47  43  86 E6        30.10R FOG
$$

NYZ177-179-078>081-020100-
LONG ISLAND NEW YORK

CITY           SKY/WX    TMP DP  RH WIND       PRES   REMARKS
FARMINGDALE    CLOUDY    44  42  93 E10       30.11S FOG
ISLIP          DRIZZLE   43  40  89 NE7       30.11F FOG
SHIRLEY        LGT RAIN  43  41  93 VRB5      30.12F
RIVERHEAD        N/A     43  41  93 SE2       30.12F
WESTHAMPTON    LGT RAIN  42  40  92 E8        30.14F
EAST HAMPTON   RAIN      41  40  96 NE6       30.14S
MONTAUK POINT    N/A     43  42  97 NE8       30.16F
$$

NYZ052-065-067-020100-
HUDSON VALLEY

CITY           SKY/WX    TMP DP  RH WIND       PRES   REMARKS
WHITE PLAINS   CLOUDY    42  41  96 E9G20     30.10S FOG
NEWBURGH       CLOUDY    46  46 100 SE8       30.11S
MONTGOMERY     CLOUDY    47  45  93 CALM      30.09S
POUGHKEEPSIE   CLOUDY    46  41  82 E6        30.11S
ALBANY         LGT RAIN  45  39  79 VRB3      30.09F
$$

NJZ001-105-106-008-010-013-015-019>022-104-020100-
NEW JERSEY

CITY           SKY/WX    TMP DP  RH WIND       PRES   REMARKS
NEWARK/LIBERTY DRIZZLE   44  44 100 E8        30.10S FOG
TETERBORO      DRIZZLE   47  43  86 E6        30.10R FOG
CALDWELL       LGT RAIN  47  45  93 E5        30.10S FOG
MORRISTOWN     CLOUDY    46  46 100 NE5       30.10S FOG
SOMERVILLE     CLOUDY    48  46  93 CALM      30.08R
SUSSEX         CLOUDY    48  44  86 CALM      30.09F
ANDOVER          N/A     46  44  93 CALM      30.09R
TRENTON        CLOUDY    49  47  93 E6        30.07S
MILLVILLE      CLOUDY    53  52  96 NE5       30.05R FOG
ATLANTIC CITY  CLOUDY    52  51  97 NE7       30.05R FOG
WRIGHTSTOWN    LGT RAIN  48  48 100 NE12      30.05S FOG
TOMS RIVER     CLOUDY    48  45  87 NE13      30.09R
BELMAR         LGT RAIN  46  45  96 NE9       30.09S FOG
$$

PAZ047>061-062-071-020100-
EASTERN PENNSYLVANIA

CITY           SKY/WX    TMP DP  RH WIND       PRES   REMARKS
PHILADELPHIA   LGT RAIN  52  49  89 NE8       30.07S FOG
ALLENTOWN      CLOUDY    50  47  89 E6        30.07S
SCRANTON       CLOUDY    49  44  83 S3        30.02F
$$

CTZ002-004>006-009-010-012-RIZ004-006-007-MAZ004-011-015-020100-
SOUTHERN NEW ENGLAND
 IN CT

CITY           SKY/WX    TMP DP  RH WIND       PRES   REMARKS
BRADLEY INTL   LGT RAIN  42  39  89 S6        30.14F
HARTFORD       LGT RAIN  43  39  86 CALM      30.16F
DANBURY        CLOUDY    42  38  85 E7        30.13S
WTRBRY/OXFORD  CLOUDY    39  36  87 E7        30.14F FOG     WCI  34
BRIDGEPORT     LGT RAIN  44  41  89 E16       30.13F
MERIDEN        LGT RAIN  43  39  86 CALM      30.15F
NEW HAVEN      CLOUDY    41  39  93 NE9       30.14F
CHESTER        LGT RAIN  41  39  93 E6        30.14F
GROTON         LGT RAIN  42  42 100 NE7       30.16F FOG
WILLIMANTIC    LGT RAIN  42  38  85 E5        30.16F

 IN RI

CITY           SKY/WX    TMP DP  RH WIND       PRES   REMARKS
PROVIDENCE     LGT RAIN  42  39  89 E5        30.19F FOG
BLOCK ISLAND   LGT RAIN  42  41  96 NE9       30.16F FOG
WESTERLY       LGT RAIN  43  40  89 NE6       30.17F FOG

 IN MA

CITY           SKY/WX    TMP DP  RH WIND       PRES   REMARKS
BOSTON         LGT RAIN  45  36  70 S10       30.20S
WORCESTER      LGT RAIN  39  36  89 SE8       30.15S WCI  33
WESTFIELD      LGT RAIN  43  39  86 CALM      30.16S
PROVINCETOWN   LGT RAIN  45  43  93 SE3       30.20F
NANTUCKET      LGT RAIN  47  44  90 E7        30.17F
$$

ANZ330-335-338-340-345-350-353-355-020100-
COASTAL MARINE OBSERVATIONS


STATION/POSITION TIME  SKY/WX   TEMP    WIND        PRES    VSBY  WAVE
                                AIR SEA DIR/SP/G                  HT/PER
                 (UTC)          (F)     (DEG/KT/KT) (MB)    (MI)  (FT/S)
NY HARB ENTRANCE 2250            47 51   60/ 19/ 23 1018.1          4/ 8
20S FIRE ISLAND  2250            45 48   60/ 19/ 23 1018.2          5/10
GREAT SOUTH BAY  2300            45 56   80/  8/ 17   N/A
23 SSW MONTAUK P 2350            43 47   60/ 17/ 21 1019.5          5/10
15 E BARNEGAT LI 2322               51                N/A           5/ 9
HUDSON CANYON    2250            52 48              1016.9          5/ 9
KINGS POINT      2300            46 53              1019.2
EXECUTION ROCKS  NOT AVBL
CENTRAL LI SOUND 2300            43      80/ 16/ 19   N/A           2/ 3
EASTERN LI SOUND 2300            43 48   70/ 10/ 12   N/A
ROBBINS REEF     2300            48                 1018.5
$$


>>>>>>>>>>>>>>>>>>>>>>>>>>>> KEY <<<<<<<<<<<<<<<<<<<<<<<<<<<
>                                                          <
>     SKY/WX - SKY CONDITION/PRESENT WEATHER               <
>     TMP    - TEMPERATURE IN FAHRENHEIT                   <
>     DP     - DEWPOINT IN FAHRENHEIT                      <
>     RH     - RELATIVE HUMIDITY IN PERCENT                <
>     WIND   - DIRECTION AND SPEED IN MPH                  <
>     PRES   - MEAN SEA LEVEL PRESSURE IN INCHES OF HG     <
>     WCI    - WIND CHILL INDEX                            <
>     VSB    - VISIBILITY IN MILES                         <
>     HX     - HEAT INDEX                                  <
>     TC     - TEMPERATURE IN CELSIUS                      <
>     VRB    - VARIABLE WIND DIRECTION                     <
>                                                          <
>>>>>>>>>>>>>>>>>>>>>>>>>>>> KEY <<<<<<<<<<<<<<<<<<<<<<<<<<<





USA.gov is the U.S. government's official web portal to all federal, state and local government web resources and services.